STARLINK-36730

Last updated on Mon Mar 23 2026 00:02:07 GMT+0000 (Coordinated Universal Time)

1 67874U 26034AA 26080.91498785 .00399241 00000+0 19231-2 0 9999 2 67874 53.1575 149.8763 0001945 49.0033 311.1158 15.80999033 5873
UTC large
Height (km)
Speed (km/s)
/
Latitude / Longitude
Inclination (degrees)
Orbital Period (minutes)
Azimuth
Elevation
Range (km)
Doppler Factor

Next 0 passes for location: London (51.5072 / 0.1276)

Sorry there are no passes over London.